Location: Unspecified
(48.2082°N, 0.0000°E)
Time: 05:32:51
(UTC+00:00)

A-11 Canister half - Pass Details

Date: 17 August 2020
Orbit: 1514 x 1686 km, 47.2° (Epoch: 21 September)

Event Time Altitude Azimuth Distance (km) Brightness Sun altitude
Rises 22:22:21 0° 291° (WNW) 4,834 12.3 -24.7°
Reaches altitude 10° 22:25:46 10° 283° (WNW) 3,869 11.6 -25.0°
Maximum altitude 22:34:23 36° 222° (SW) 2,438 9.8 -25.6°
Enters shadow 22:36:48 32° 196° (SSW) 2,590 9.8 -25.8°
